Wind_Speed
62 60 56 52 49 46 44 42 41 40 38 37 37 37 37 36 35 34 34 35 35 36 36 37 37 38 38 38 39 40 41 42 43 45 47 49 52 54 56 58 59 59 60 61 63 66 68 71 73 75 78 81 84 88 92 95 98 102 105 106 107 109 111 112 111 109 109 109 106 103 103 104 103 101 100 100 97 93 89 85 82 80 78 74 72 69 68
64 60 56 52 48 45 43 42 41 40 39 37 36 36 36 35 34 33 33 33 33 34 34 34 34 35 35 36 37 38 38 40 41 43 45 48 51 53 55 57 58 57 57 58 59 61 64 67 70 71 74 77 81 86 90 93 96 100 103 105 106 108 110 112 113 113 113 112 109 105 104 104 104 104 104 103 100 95 90 86 82 80 78 76 73 71 70
66 61 56 52 48 45 43 42 41 40 38 37 36 35 35 35 34 33 32 31 31 32 32 32 32 33 33 34 35 36 37 39 40 42 44 47 49 52 54 55 55 55 55 56 57 58 60 63 66 68 70 73 77 82 88 91 94 97 100 103 105 108 110 111 113 114 115 114 111 108 106 105 107 108 107 103 100 97 93 89 86 82 80 78 75 73 73
68 63 57 52 49 46 44 43 41 40 38 37 35 34 34 34 33 32 32 31 30 30 30 31 31 32 32 33 35 36 37 38 39 41 44 46 48 50 50 49 49 51 53 53 54 55 57 59 61 64 67 69 72 78 83 88 91 94 98 101 103 106 108 110 112 114 115 115 112 110 109 109 109 108 105 102 100 98 96 93 89 86 84 82 78 76 76
70 64 58 54 50 47 45 43 41 40 38 36 34 33 33 32 32 31 31 30 30 30 30 30 31 32 32 33 34 35 35 36 38 41 44 47 48 47 45 43 44 46 47 48 50 52 55 57 58 60 62 66 69 73 78 84 88 91 95 98 101 104 107 108 110 113 116 116 114 113 112 111 109 105 102 101 100 98 97 96 91 88 86 84 81 80 79
71 65 60 55 51 48 46 44 42 40 38 36 34 32 31 31 31 31 30 30 30 30 30 31 31 32 33 34 34 34 34 35 36 39 43 46 47 45 42 41 41 41 42 43 45 47 51 54 56 57 58 61 66 70 74 79 84 88 92 95 98 102 105 107 109 112 116 117 115 114 113 111 108 104 101 101 100 98 98 97 94 91 87 85 83 81 79
73 67 61 57 52 48 46 44 43 41 38 36 33 32 30 30 30 30 30 29 29 30 31 31 32 33 34 34 34 33 33 34 35 37 42 45 45 43 39 38 37 37 37 38 39 42 45 49 52 54 55 58 62 67 71 75 79 84 88 92 95 99 103 105 107 110 114 117 116 114 113 112 109 105 102 102 101 100 99 98 97 93 88 87 86 81 79
74 68 62 58 53 49 47 45 43 41 39 36 34 31 30 29 29 29 29 29 29 30 31 32 33 33 34 34 34 32 32 33 34 36 41 43 43 39 35 33 33 32 32 33 35 37 40 44 47 50 53 55 58 63 67 70 74 79 84 88 92 96 100 103 106 109 113 116 116 114 113 112 110 107 104 102 101 101 100 99 98 95 91 89 87 82 82
75 69 64 59 54 50 47 46 44 42 39 37 34 32 30 29 29 28 29 29 30 30 32 33 33 33 34 34 34 32 31 31 33 36 39 41 41 38 33 30 29 28 28 29 30 33 36 39 43 47 50 53 55 58 62 66 71 75 79 83 87 92 98 101 105 108 112 115 116 114 113 112 111 110 106 103 101 101 100 100 99 98 94 91 88 85 85
76 70 65 60 55 51 48 47 45 43 40 37 34 32 30 29 29 28 29 29 30 31 32 33 34 34 34 35 34 32 30 30 32 36 38 38 38 36 31 27 25 24 24 25 26 29 32 35 39 43 46 49 51 54 57 61 66 71 74 78 82 88 94 99 103 107 112 116 116 115 114 113 112 110 107 103 100 99 100 101 100 99 97 94 91 88 87
78 71 65 61 56 53 50 48 45 42 40 37 35 32 31 29 28 28 28 29 30 32 33 34 35 35 35 36 35 32 30 30 32 36 37 36 34 32 28 23 21 20 21 22 24 26 29 32 35 38 42 45 48 50 52 55 60 66 70 74 78 83 89 95 100 105 112 116 115 114 114 112 110 108 107 104 100 98 100 101 100 99 99 96 93 90 88
78 72 66 62 58 54 51 48 45 42 39 37 35 32 31 30 29 28 28 29 30 32 34 35 36 36 36 36 35 33 31 30 32 35 36 34 31 26 23 20 17 17 18 19 21 25 27 30 32 35 38 41 44 46 48 50 55 60 65 70 75 80 86 92 97 102 109 114 115 114 112 109 107 107 107 105 102 100 100 100 99 100 100 98 95 92 90
79 73 67 63 59 55 51 48 45 41 38 36 34 32 31 30 29 29 29 30 31 32 34 35 36 36 36 36 36 34 31 30 32 34 35 33 29 24 19 16 14 14 15 17 19 22 25 27 30 32 35 38 40 42 44 47 51 55 60 66 72 77 83 89 94 99 106 112 114 112 109 106 105 107 108 107 106 103 98 97 99 100 101 100 97 93 92
79 73 68 64 60 56 51 48 44 40 37 35 34 32 31 31 30 29 30 30 31 32 33 34 36 36 37 37 36 35 32 30 31 33 33 31 29 24 18 14 12 11 13 14 17 19 22 24 27 30 32 35 37 39 42 45 48 52 57 63 69 75 80 85 91 97 103 109 112 110 107 105 106 107 109 110 107 103 97 95 98 100 100 101 98 94 94
80 74 68 64 60 55 51 47 43 39 36 34 33 32 31 31 30 30 30 30 31 32 33 34 36 37 38 38 37 36 34 31 31 33 33 30 27 23 18 14 11 10 11 12 15 17 19 22 25 27 30 32 34 37 40 43 47 51 57 62 68 72 77 81 87 94 100 105 109 110 107 105 105 108 110 110 107 102 98 95 97 100 101 101 99 96 96
80 74 69 64 60 55 51 46 42 38 35 33 32 31 30 30 30 30 30 30 31 32 33 35 36 37 38 38 38 38 36 33 32 33 33 31 26 21 17 14 11 9 9 11 13 15 17 20 23 25 28 30 32 34 38 41 45 50 56 62 66 69 72 77 83 90 97 102 105 108 107 105 105 108 110 109 106 103 100 98 97 100 102 101 100 99 98
80 74 68 64 60 56 51 46 42 38 35 33 31 30 30 30 30 30 30 30 31 33 34 34 36 37 38 38 38 38 37 34 32 33 35 34 29 23 18 14 11 8 7 8 10 12 15 17 20 23 25 27 29 32 36 40 43 48 53 58 62 65 68 72 77 85 92 97 101 105 106 106 107 109 109 108 106 104 103 100 96 96 99 101 101 101 100
79 73 68 64 60 56 51 46 42 38 35 33 32 31 30 29 30 30 30 30 32 34 35 36 37 38 38 37 37 38 38 35 32 32 35 35 32 26 20 15 11 8 5 6 7 9 12 15 17 20 23 25 27 30 34 37 41 45 50 54 58 63 66 69 74 80 87 93 97 102 105 106 107 108 108 108 107 106 105 100 94 93 97 101 102 103 103
78 72 67 64 60 55 50 46 42 39 37 35 33 32 32 31 30 30 30 31 32 35 36 37 37 37 36 36 36 37 37 35 32 32 34 35 32 28 22 16 12 8 5 4 6 8 10 13 15 17 20 23 25 28 31 34 38 42 47 51 56 61 65 68 72 78 84 89 94 100 104 106 106 107 108 107 107 106 104 98 94 95 99 102 104 105 105
76 71 67 64 61 57 52 48 44 41 38 37 35 34 33 32 31 31 31 32 33 34 35 35 35 36 35 35 35 35 35 35 32 31 33 34 32 29 23 17 12 8 4 2 5 7 9 12 14 15 18 21 23 26 29 33 36 40 45 49 54 58 63 67 72 77 82 86 91 96 101 104 106 106 107 106 105 104 101 98 96 96 99 103 105 106 107
75 70 67 65 63 59 54 50 45 41 38 37 35 34 33 33 33 32 32 32 32 32 33 33 34 34 33 33 32 32 33 33 32 31 32 33 32 30 25 18 13 8 4 1 3 6 8 11 12 14 17 19 22 25 28 31 35 38 42 47 52 56 61 66 72 76 79 82 88 93 98 102 105 106 105 104 103 102 101 100 98 97 99 103 106 108 109
73 69 67 65 62 58 54 49 45 41 38 36 35 33 32 32 32 32 32 31 30 31 32 33 33 32 31 31 30 30 31 32 32 31 31 32 32 30 26 20 14 9 6 3 1 5 8 9 11 13 16 18 21 24 27 30 33 37 41 46 50 55 59 64 70 74 76 79 84 90 95 100 103 104 104 103 102 101 101 100 99 99 99 103 107 109 110
72 68 66 64 61 56 52 48 44 41 39 37 35 33 32 31 30 30 30 30 30 31 32 33 33 33 32 31 30 29 29 29 30 30 29 30 30 30 26 21 16 11 8 4 1 3 7 9 10 12 15 18 21 23 26 29 32 36 40 44 49 53 57 62 67 72 75 77 82 87 93 97 101 103 104 103 102 101 101 101 101 100 100 103 107 110 110
70 67 65 63 60 56 52 48 44 41 39 38 36 33 31 30 30 30 30 30 30 31 31 32 32 31 30 29 28 27 27 28 29 29 29 29 29 29 27 22 18 14 10 6 3 1 5 8 9 11 14 17 20 23 26 29 32 35 39 43 48 52 56 60 65 70 74 77 80 85 90 94 98 101 102 103 102 100 101 102 102 101 101 104 108 109 109
69 66 64 62 59 55 52 49 46 43 41 39 36 34 32 31 31 31 31 31 31 31 31 31 31 31 30 29 29 28 27 26 27 29 29 29 29 29 29 25 20 17 12 8 5 2 4 7 8 9 12 16 19 23 27 30 33 36 39 43 47 52 56 60 64 68 72 76 80 84 88 92 95 98 100 101 101 100 101 102 102 102 102 104 107 109 109
68 65 62 59 56 53 50 47 45 43 41 38 36 34 32 32 32 33 33 33 33 33 33 32 32 32 32 31 30 29 27 26 26 27 29 30 29 29 29 27 24 19 15 9 6 3 2 6 9 9 10 13 17 22 26 30 33 36 40 43 47 51 55 59 62 66 71 75 79 82 85 89 93 95 96 98 99 99 100 101 102 102 102 104 107 109 109
67 64 60 57 54 51 48 46 44 42 40 37 35 34 33 33 34 34 34 34 34 34 34 34 33 32 31 30 29 28 27 26 25 26 27 29 29 28 28 28 26 22 18 12 7 4 2 5 9 11 10 12 15 19 24 28 32 36 40 44 47 51 54 57 60 64 69 73 76 78 81 85 90 92 94 96 97 98 99 100 101 102 102 105 107 108 108
66 62 59 56 53 50 47 45 43 42 40 38 37 36 36 36 36 36 36 35 34 34 33 33 32 31 30 30 29 28 27 25 25 25 26 27 28 28 28 27 26 23 20 14 9 5 2 3 8 12 13 13 14 18 22 26 31 35 39 43 47 50 53 56 59 62 66 69 71 73 77 82 87 90 92 94 95 96 98 99 100 101 102 104 106 106 107
64 61 57 54 52 50 47 45 43 42 40 39 38 37 36 37 37 37 36 36 36 35 34 33 33 32 32 30 29 29 28 26 24 24 24 26 27 28 27 27 26 25 21 16 11 6 2 2 7 11 14 14 15 17 20 24 29 33 37 41 45 48 52 55 57 61 64 67 69 70 74 80 85 88 91 93 93 95 96 97 99 100 101 104 105 105 106
62 59 56 53 51 49 47 46 45 44 42 41 40 38 37 37 36 36 35 36 35 34 34 33 33 33 32 31 30 30 29 27 26 25 25 25 26 28 28 28 28 27 24 19 13 7 3 2 5 10 14 16 16 18 19 22 26 30 35 40 44 48 51 54 56 59 62 64 67 69 73 79 84 87 90 92 92 93 95 96 98 100 101 103 105 104 105
61 58 55 52 50 49 48 47 46 46 46 45 44 42 40 39 38 37 37 36 35 34 33 33 32 32 32 31 31 30 30 29 28 27 26 26 26 27 29 29 28 28 26 23 17 10 5 3 4 9 13 16 17 18 20 22 25 29 33 39 44 47 50 53 56 58 60 62 64 68 72 79 84 87 90 91 91 92 94 95 98 100 101 103 104 104 104
60 57 54 51 49 48 48 47 47 47 47 47 47 46 44 42 41 41 40 39 38 36 34 33 32 31 30 30 29 29 30 31 30 28 27 26 25 26 27 28 28 27 26 24 21 14 7 4 4 8 13 16 18 19 21 23 26 29 33 38 42 46 49 53 55 57 58 59 62 66 72 78 84 87 90 90 90 91 93 95 98 101 103 104 104 104 104
59 56 53 51 49 48 48 48 48 49 49 49 49 48 47 45 44 43 42 41 40 39 37 35 33 31 30 29 29 29 29 28 28 28 28 26 24 24 25 26 27 27 25 24 23 17 9 5 5 8 13 16 17 20 22 24 26 29 34 37 41 44 48 52 54 55 56 57 60 64 70 77 84 88 90 90 89 90 92 95 98 101 103 105 104 103 103
58 55 53 51 49 47 47 48 48 49 49 50 49 49 48 48 47 45 44 42 40 39 39 38 36 34 32 30 29 29 27 25 25 26 26 25 24 23 22 22 24 25 24 23 22 19 12 6 5 9 13 16 17 19 22 24 26 29 33 37 40 43 47 50 52 53 54 56 59 63 69 77 84 89 90 90 89 90 92 94 97 99 101 102 103 102 101
56 54 52 49 47 46 46 47 47 48 49 49 49 49 48 48 48 47 45 44 41 40 39 38 37 37 35 33 31 29 27 25 24 23 23 23 22 22 21 20 20 22 22 21 20 19 14 8 4 7 12 16 17 18 20 24 27 29 33 36 39 42 45 48 49 50 51 55 59 64 69 77 84 89 90 90 91 93 94 94 96 98 99 100 100 100 100
55 53 50 48 46 45 45 46 47 48 48 49 49 49 48 48 47 47 46 45 43 41 39 38 37 36 36 35 33 30 27 26 25 23 22 20 19 20 21 21 20 19 19 19 18 16 14 9 3 5 10 14 17 19 21 23 26 29 32 35 38 40 43 45 46 47 49 54 59 64 71 79 86 89 89 90 91 93 95 95 96 99 101 100 99 99 99
53 51 49 47 46 45 45 45 46 47 48 49 49 49 48 48 47 46 45 44 43 42 40 38 37 36 35 35 34 31 29 27 26 24 23 21 19 17 18 20 21 20 19 18 17 14 11 8 4 3 8 13 17 20 22 24 26 29 32 34 36 38 41 42 42 44 48 53 58 64 71 80 87 90 89 89 89 90 93 95 97 99 101 101 101 100 99
52 49 47 46 46 45 45 46 47 48 49 49 50 50 49 48 47 46 44 43 42 41 40 39 38 37 36 35 34 31 29 28 27 25 23 22 20 18 16 16 18 19 19 18 17 15 11 7 4 3 7 11 16 19 22 24 26 29 31 34 35 37 39 40 40 42 47 52 57 63 71 80 87 89 89 88 88 89 91 94 97 99 100 101 101 100 99
50 48 46 45 45 45 45 46 47 48 49 50 50 50 50 49 48 47 45 43 41 40 39 39 38 37 36 36 34 31 29 29 29 28 25 23 21 19 17 15 15 16 17 18 17 16 14 9 4 1 5 10 15 18 22 25 27 29 31 34 35 37 38 38 39 42 47 52 57 64 73 81 87 89 89 88 89 90 92 94 97 99 100 99 98 98 98
48 47 45 44 43 44 44 46 47 48 49 50 50 50 51 50 49 47 45 43 41 39 38 38 37 36 35 35 33 31 28 28 30 29 27 25 23 21 18 16 14 13 14 16 17 17 16 14 10 5 5 9 14 17 21 25 28 30 32 34 36 37 37 38 39 43 48 53 58 65 74 83 88 89 88 89 90 91 92 95 97 98 99 98 97 96 97
47 46 44 43 43 43 44 45 47 49 49 50 51 51 51 51 50 47 44 42 40 39 38 37 36 35 33 33 32 30 28 28 29 29 28 27 26 24 22 19 15 13 12 13 15 16 16 16 14 12 8 8 13 17 21 24 28 31 33 35 37 38 38 38 41 44 49 54 60 67 76 84 89 89 89 89 91 92 93 95 97 98 98 98 97 97 97
46 45 44 43 42 43 44 45 47 49 51 52 53 53 52 52 50 48 45 44 43 42 40 38 37 35 33 31 30 29 27 27 29 29 28 28 28 27 26 23 19 16 13 12 13 15 16 16 16 16 14 11 12 16 21 24 28 31 34 36 38 39 39 40 42 47 51 57 62 70 79 86 90 90 90 90 92 93 94 95 97 99 99 98 98 98 99
45 44 43 42 42 42 43 45 47 49 51 53 54 55 55 54 52 49 48 48 48 47 44 41 39 36 33 32 31 29 28 28 29 29 29 29 29 29 28 25 22 20 17 14 13 14 15 16 17 17 17 16 15 16 20 24 28 31 33 36 38 40 41 43 45 49 54 59 65 72 81 89 92 92 92 92 93 94 95 96 98 100 100 100 99 98 99
43 42 41 41 41 42 43 45 47 49 51 53 55 56 57 56 54 52 51 51 51 49 47 44 41 37 33 31 31 29 28 29 29 29 29 29 29 29 28 27 25 23 21 18 16 15 15 16 17 18 19 19 18 18 19 23 28 31 34 36 38 39 41 44 48 52 56 61 67 75 83 91 94 94 93 93 94 95 96 97 100 101 102 101 99 98 99
42 41 40 39 39 40 42 44 47 49 51 53 54 55 56 56 54 53 52 52 52 51 48 46 44 40 36 33 31 29 28 29 30 30 30 29 29 29 29 28 28 26 24 21 19 17 17 17 18 19 20 21 20 20 20 22 26 31 34 36 38 39 41 43 48 54 59 64 70 77 85 92 96 96 95 95 96 96 97 99 101 103 103 102 100 98 98
42 41 40 39 39 40 41 43 46 48 50 52 53 54 54 54 52 52 54 54 53 52 50 48 47 45 41 37 34 32 31 31 31 31 31 30 29 29 29 29 29 28 27 25 23 21 20 19 19 19 21 22 22 22 22 23 26 29 33 37 38 39 40 42 46 53 60 66 72 79 87 93 97 98 97 97 97 98 99 101 103 105 105 104 102 100 99
41 41 40 39 39 40 41 43 45 47 50 52 52 52 54 54 51 52 54 55 53 51 49 48 48 47 44 42 40 39 37 35 34 33 33 32 31 30 30 29 29 28 28 27 26 24 22 20 19 19 21 22 23 24 24 25 26 28 32 36 39 40 41 42 45 51 59 66 73 80 88 94 98 99 99 99 99 99 101 103 105 106 107 106 104 102 101
41 40 39 39 39 40 42 44 45 47 49 51 50 50 53 54 52 52 54 54 51 49 48 47 47 47 46 45 44 43 42 40 38 36 35 34 33 32 31 30 29 29 28 28 27 26 25 23 21 20 20 22 23 25 26 27 27 28 31 34 38 41 43 43 44 49 57 64 72 80 88 95 99 100 100 100 100 101 102 105 107 108 108 108 107 106 104
41 40 39 39 40 40 42 45 46 47 50 51 49 50 52 52 52 52 53 52 50 49 47 47 47 47 46 46 46 45 44 43 41 39 36 34 32 31 31 30 29 29 28 28 28 27 26 25 22 21 21 22 23 25 27 28 28 29 31 34 37 41 43 45 45 48 55 63 71 78 86 94 99 102 102 102 102 102 104 106 109 110 111 111 111 110 109
40 39 38 39 40 41 42 45 46 48 49 49 49 49 51 52 53 53 53 52 51 49 48 47 47 47 46 46 46 46 46 45 43 41 38 34 32 30 29 28 28 28 27 27 27 26 25 23 22 22 22 22 23 25 26 28 30 30 31 34 36 40 43 46 47 48 53 60 69 76 84 92 98 102 103 103 103 103 105 107 110 112 113 113 113 113 113
38 38 38 39 40 41 43 45 46 46 47 48 49 50 51 52 54 54 54 53 52 51 49 48 48 48 47 47 46 45 46 45 44 42 39 36 33 30 29 28 28 27 27 27 26 25 23 21 21 22 23 23 22 23 25 27 30 31 32 34 36 39 42 45 47 48 51 57 66 74 82 90 96 101 103 104 104 104 106 108 111 113 114 115 115 114 114
37 38 38 39 40 42 43 44 45 46 46 47 49 51 53 53 54 54 54 54 53 52 50 50 49 49 49 48 46 45 44 44 42 41 39 37 35 33 30 28 27 27 27 27 26 24 21 19 19 22 24 24 22 22 23 26 29 32 33 35 36 38 41 44 47 48 50 55 62 71 79 87 94 100 103 104 105 106 106 109 111 113 114 115 115 115 114
Wind_Direction
345 343 340 337 334 331 329 327 324 321 319 315 312 308 306 304 302 298 295 293 291 289 286 285 283 281 280 278 276 274 273 272 271 270 269 268 267 266 264 262 259 256 254 251 248 246 245 243 240 237 234 232 230 229 228 226 225 225 224 223 222 222 221 221 222 221 221 220 219 219 221 221 220 219 217 216 215 214 213 212 211 211 210 207 205 204 207
347 345 342 339 336 333 331 329 327 325 322 319 315 311 308 305 303 300 297 295 292 290 288 287 286 284 283 281 280 278 277 275 274 273 271 269 268 266 265 263 262 260 257 255 251 248 245 243 241 238 235 232 230 229 228 226 224 224 224 223 221 221 220 220 220 220 220 220 218 218 219 220 219 218 217 215 214 213 213 212 211 211 210 208 205 203 206
348 346 344 341 338 336 334 333 331 329 326 323 318 314 311 308 306 303 301 298 295 293 291 290 289 288 288 287 285 283 282 280 278 277 274 271 269 267 265 264 264 263 261 258 255 251 248 244 241 239 236 233 230 228 228 227 224 223 223 222 221 220 219 219 219 219 220 220 218 217 218 219 219 218 216 215 213 211 211 211 210 209 209 208 205 202 206
349 347 345 343 340 338 337 336 335 332 328 325 321 317 313 310 308 307 305 302 299 297 296 296 295 294 293 292 290 288 287 285 285 283 280 277 273 270 268 266 265 264 262 259 255 252 249 246 242 238 236 233 230 228 227 227 225 223 222 221 220 219 218 217 217 218 219 220 218 217 216 218 219 218 216 215 213 210 210 210 209 208 208 207 204 202 205
350 348 346 344 343 341 339 338 336 333 330 327 323 319 316 313 310 309 307 305 304 302 302 301 300 298 296 295 293 291 290 289 290 289 287 284 281 277 275 273 270 266 262 258 254 250 248 246 243 238 235 232 230 228 227 226 225 224 222 220 219 219 218 217 216 216 218 219 218 217 216 217 218 218 216 215 214 210 209 210 208 208 208 207 204 202 204
350 349 347 346 345 343 341 339 338 336 333 330 326 322 319 315 312 310 308 307 307 307 306 305 303 301 300 299 298 296 294 294 295 295 292 289 287 285 284 281 276 270 264 258 253 248 245 244 242 239 235 231 229 227 226 225 224 224 222 220 219 218 218 216 215 215 217 219 218 217 216 216 217 216 215 214 214 211 209 209 208 207 207 207 206 203 204
350 349 348 347 346 344 342 340 339 337 335 332 328 324 320 317 313 312 311 310 310 310 309 308 305 304 303 303 302 301 300 300 300 300 297 294 292 291 290 286 280 273 266 259 253 248 243 241 240 239 235 231 228 226 225 224 223 223 222 220 218 217 217 216 215 214 216 218 218 217 216 215 215 215 214 213 212 211 209 208 208 207 206 207 207 202 203
351 350 349 348 347 345 343 341 340 338 337 334 330 326 322 318 316 314 314 313 313 313 311 308 306 305 306 306 306 306 306 306 306 304 302 299 298 297 295 291 283 276 267 260 253 247 242 238 237 236 234 232 228 226 224 223 222 221 221 220 217 216 216 215 214 214 215 217 218 217 216 215 214 214 214 213 211 210 209 207 207 206 205 207 207 202 202
351 350 349 349 347 346 344 342 340 339 337 335 332 328 324 320 318 316 315 315 315 314 312 310 309 308 309 310 311 311 312 313 313 310 308 306 305 304 302 296 287 278 269 260 253 246 241 237 234 232 232 231 229 226 223 222 221 220 220 219 217 216 215 214 213 213 214 216 217 216 215 214 213 213 213 212 211 210 209 207 206 205 205 206 206 203 204
351 351 350 348 347 346 345 343 341 340 338 336 333 329 325 322 319 318 318 318 317 315 313 313 313 313 314 315 316 318 321 322 320 316 313 311 310 309 306 300 289 279 270 261 254 247 241 237 233 230 229 229 229 227 224 221 220 220 219 218 216 215 215 214 212 212 213 215 216 215 215 214 212 212 212 212 211 209 208 207 205 204 204 205 205 203 205
351 350 349 348 347 346 345 343 341 340 338 336 334 330 327 323 320 319 320 319 318 317 317 318 318 318 318 319 320 324 328 330 327 322 318 316 314 312 308 301 289 279 270 261 253 247 241 237 233 230 228 227 227 226 224 220 219 218 217 216 215 214 214 214 213 211 212 214 215 214 214 213 211 211 211 211 210 209 208 207 205 204 203 204 205 203 205
350 350 349 348 347 346 345 343 342 340 338 337 334 331 327 324 322 322 321 321 320 320 321 322 322 321 320 322 325 329 334 336 333 329 325 322 320 316 310 303 293 280 270 259 250 245 241 237 233 230 227 225 225 224 223 220 217 216 215 214 214 213 212 212 212 211 212 214 214 214 213 212 210 210 211 211 210 209 208 206 204 203 203 204 204 203 205
350 349 348 347 347 346 344 343 342 340 339 337 335 332 328 325 324 324 323 322 322 322 322 323 323 323 324 326 329 333 338 341 340 335 332 330 328 323 316 308 297 283 268 255 246 241 238 236 233 230 227 224 222 221 220 218 215 212 212 212 212 212 211 211 211 211 211 213 214 213 212 211 210 210 210 210 210 209 207 205 204 204 203 203 204 203 205
349 349 348 347 347 346 344 343 342 341 340 338 336 333 330 327 325 324 324 323 322 321 322 323 324 326 327 329 331 336 341 346 346 342 339 339 336 332 327 320 308 287 266 251 240 234 232 231 230 229 226 223 220 217 216 215 212 209 208 209 210 211 211 210 209 209 211 212 213 213 211 210 209 209 210 210 209 208 206 204 204 204 203 203 203 203 206
349 348 348 348 347 346 345 344 343 342 341 339 337 334 331 328 326 324 324 323 322 322 323 324 326 328 330 331 335 339 343 349 351 347 345 345 344 340 335 330 319 295 267 246 234 228 225 224 225 225 225 222 219 216 214 212 210 207 205 206 208 209 209 209 208 208 210 210 211 212 211 209 208 208 209 209 208 207 205 204 203 203 202 202 202 203 207
349 348 348 348 348 347 347 345 344 343 342 341 339 336 333 330 326 324 323 324 323 323 324 326 328 331 333 335 337 340 343 350 355 353 350 349 350 349 344 339 330 307 273 245 230 224 221 220 221 222 222 221 218 215 213 211 209 207 205 205 206 207 208 208 207 208 209 209 209 210 210 208 208 208 209 208 207 206 205 204 203 202 202 201 201 203 207
349 348 349 349 349 349 347 346 345 344 344 343 341 338 335 332 329 326 324 324 323 324 326 328 330 332 334 337 339 340 343 350 357 360 357 353 353 356 356 349 339 318 282 248 228 220 218 218 219 220 220 219 216 214 213 211 208 207 207 206 205 205 206 206 206 208 210 209 208 209 208 207 207 208 208 208 206 205 205 204 202 201 201 201 201 203 208
349 349 349 350 350 349 348 346 346 346 346 345 343 340 338 336 333 329 326 323 321 323 326 328 330 332 335 338 341 341 343 348 357 5 4 358 356 359 1 356 349 336 302 255 227 216 214 214 215 217 218 217 215 213 212 210 207 206 206 206 205 204 203 203 204 207 209 209 208 207 207 207 207 207 207 207 205 205 205 203 200 200 201 201 202 204 208
349 349 350 350 350 349 349 348 348 347 347 346 345 343 341 339 336 332 329 325 323 324 327 328 329 331 335 339 342 342 342 346 355 7 7 1 359 1 3 2 357 347 322 262 222 208 208 208 210 213 215 214 213 211 210 208 206 205 204 204 205 204 201 200 201 205 207 207 207 207 207 206 206 207 207 206 205 204 204 201 199 200 201 201 202 204 208
349 349 350 350 350 350 350 350 350 349 348 347 346 345 343 340 338 335 333 331 329 329 329 330 331 334 337 340 342 342 342 344 353 6 10 5 1 2 5 6 2 354 338 266 217 202 201 202 202 206 210 210 210 209 207 205 204 203 202 202 203 204 201 199 200 203 205 205 205 206 206 205 206 206 206 206 204 203 202 201 200 200 200 200 201 204 208
349 350 350 349 349 350 350 350 350 349 348 348 347 346 343 341 339 338 337 336 334 332 332 334 337 339 340 341 342 342 344 346 351 3 11 9 5 4 5 7 8 7 4 311 215 196 192 194 195 198 202 205 206 205 204 203 201 200 200 200 201 202 202 200 199 201 204 204 204 205 204 204 205 206 206 205 204 202 201 201 201 201 201 200 202 204 208
349 350 350 349 349 349 349 349 349 349 349 350 349 347 345 343 341 339 339 339 337 335 336 339 342 344 345 346 346 345 347 348 350 359 9 12 9 7 6 8 11 16 21 14 218 190 182 182 188 193 196 199 201 201 200 200 198 197 197 198 199 200 201 201 200 201 202 203 203 204 203 203 204 205 205 205 203 201 201 201 201 201 201 200 202 204 208
350 350 350 350 349 348 348 349 350 350 351 352 351 350 348 347 345 343 343 343 342 341 342 344 346 348 350 350 349 347 348 350 351 355 6 14 14 10 9 11 14 18 25 33 40 187 178 171 177 189 192 194 196 196 196 196 195 195 194 195 197 199 199 200 201 201 200 201 202 203 203 202 203 203 204 204 202 200 200 200 201 201 201 201 202 205 208
350 350 350 350 349 349 349 350 351 353 354 353 353 352 351 351 350 349 349 348 346 346 347 348 349 351 352 353 353 352 353 354 353 354 3 14 17 14 12 14 17 20 23 33 47 139 168 162 167 183 190 191 191 191 192 192 191 192 192 193 195 197 198 199 200 201 200 200 200 202 202 201 202 202 202 203 202 199 199 200 201 201 201 201 202 205 208
349 350 350 350 350 351 351 352 353 355 355 355 354 354 354 354 354 354 354 353 351 351 352 352 353 354 356 358 359 358 357 356 355 356 2 10 16 17 15 15 18 22 22 27 37 68 154 155 157 172 186 189 188 188 189 189 188 189 190 191 193 195 197 199 200 201 201 200 200 200 200 200 200 201 201 201 201 199 198 199 200 201 201 201 202 205 208
349 350 350 351 352 353 353 355 356 357 356 356 356 357 358 358 359 359 359 358 357 357 356 356 357 358 359 0 0 0 0 359 358 359 2 6 13 18 18 17 18 20 21 25 34 47 124 152 150 156 175 185 186 187 187 187 187 187 187 189 192 194 197 199 200 201 202 202 201 199 198 198 198 199 199 200 200 198 197 198 199 200 200 201 202 205 207
349 350 351 352 353 355 356 358 359 359 358 357 358 1 3 4 4 3 3 2 2 1 359 359 359 359 360 0 1 3 3 2 1 1 2 4 9 15 19 20 19 19 19 20 29 50 97 158 155 149 156 173 181 185 186 186 186 186 187 188 191 194 196 198 200 201 203 203 202 199 197 197 197 197 197 198 198 197 197 197 198 198 199 200 202 204 207
349 351 352 353 355 357 359 0 2 2 1 0 2 5 7 7 7 6 5 5 5 4 3 1 0 0 2 3 4 5 6 6 4 3 2 4 8 13 18 20 21 22 20 18 22 45 88 163 164 153 150 160 172 179 184 185 185 185 187 188 190 193 196 198 200 202 203 204 202 199 196 195 195 195 196 197 197 196 196 196 196 197 198 199 201 204 206
349 351 352 354 356 358 0 3 4 5 4 5 7 8 9 10 9 8 7 6 6 7 6 4 3 3 4 4 5 6 7 7 5 4 4 4 7 12 17 21 23 24 24 22 22 30 60 155 171 160 153 154 163 172 179 183 184 185 187 188 190 193 195 198 200 202 203 203 202 198 195 194 194 194 194 195 196 195 194 194 195 196 197 199 201 204 205
349 351 352 354 356 358 1 4 6 7 8 9 10 11 11 11 11 10 9 8 8 8 9 8 7 6 4 4 5 6 6 7 6 5 4 5 6 9 14 19 23 25 25 25 26 28 48 126 171 166 156 153 158 166 173 179 182 184 187 189 190 193 195 197 200 202 203 203 200 196 194 194 193 192 193 194 195 194 193 193 193 194 196 198 201 203 204
348 350 352 354 356 359 1 4 7 9 10 11 11 12 12 12 12 11 11 10 9 9 11 12 12 10 7 5 5 4 5 6 6 5 4 2 3 7 10 13 18 23 25 26 27 30 49 101 157 166 158 153 155 161 168 175 178 182 188 191 192 193 195 197 200 201 202 201 199 195 192 192 192 191 192 194 194 192 192 192 192 193 195 197 200 202 203
348 350 351 354 356 359 1 4 7 9 10 11 11 11 11 11 11 11 10 10 9 8 10 13 15 15 13 10 8 6 5 4 2 2 2 1 360 2 5 7 11 17 23 28 30 32 47 92 140 157 155 153 155 160 167 171 175 182 190 193 193 194 196 198 200 200 200 200 197 194 192 191 190 190 191 193 193 192 191 191 192 192 194 196 199 201 202
347 349 351 354 356 358 1 3 6 8 9 9 9 9 8 9 10 9 8 8 6 6 8 10 13 15 15 13 12 11 9 5 360 358 358 357 356 358 360 1 4 8 16 26 30 32 43 81 125 147 152 153 156 162 166 169 174 184 191 194 194 196 197 199 200 200 198 197 196 193 191 190 189 189 191 192 192 191 191 191 192 193 194 196 198 200 200
347 349 351 353 356 358 1 3 5 6 7 8 7 6 6 6 6 6 6 5 4 4 5 6 8 11 13 14 14 14 11 8 5 1 357 353 351 352 353 355 357 359 7 19 27 30 38 66 120 149 154 153 157 164 168 169 176 187 193 195 197 198 199 201 201 199 196 195 193 192 191 189 189 189 191 191 191 191 192 192 192 193 194 196 198 199 199
347 349 351 353 356 358 0 2 4 5 6 6 5 5 4 4 3 2 2 2 1 2 2 3 4 6 7 8 11 11 10 9 9 9 4 357 351 347 346 348 351 352 357 7 20 28 35 50 111 159 161 157 158 164 170 173 180 189 195 197 199 200 202 203 202 198 195 194 192 190 189 189 189 190 191 191 190 191 191 191 192 193 194 196 198 199 199
347 349 351 353 356 358 -0 1 3 4 4 4 4 3 3 2 1 360 359 358 358 359 359 360 2 3 3 2 3 4 6 7 8 8 6 5 0 352 346 343 343 345 348 353 3 18 29 41 77 164 172 168 164 166 171 178 184 191 196 199 201 202 204 204 201 197 195 194 192 190 188 187 188 190 191 191 191 191 190 190 191 193 194 195 197 198 199
347 349 351 353 355 358 359 0 1 2 3 3 2 2 1 1 360 358 357 356 355 356 357 358 360 1 1 360 359 358 360 3 4 4 3 4 5 2 354 345 339 337 338 340 345 357 15 33 59 151 180 181 177 174 175 181 188 194 198 200 203 204 205 203 200 197 196 194 192 191 189 187 188 190 191 192 192 192 190 190 191 193 194 195 196 197 198
346 349 350 352 354 356 358 359 360 1 1 1 0 360 359 359 359 358 357 355 355 355 355 357 358 359 359 359 357 355 355 357 358 359 360 360 359 360 0 355 344 334 329 329 331 336 346 8 43 128 182 192 191 186 184 185 190 196 200 202 204 205 205 202 197 195 196 194 192 190 189 188 189 190 191 191 192 192 191 191 191 192 194 196 197 197 197
346 348 350 352 354 355 356 357 358 359 359 359 359 358 357 357 357 357 356 356 355 355 355 356 356 356 357 358 356 353 352 352 352 353 354 354 353 352 354 355 351 341 330 322 320 321 324 329 342 136 184 197 201 199 195 193 193 197 201 204 206 206 205 200 195 194 194 194 192 190 189 188 189 190 191 191 191 191 192 192 192 193 194 196 197 197 197
346 348 350 351 353 354 355 356 356 357 357 357 357 357 356 356 356 356 355 355 355 355 354 354 354 354 354 355 354 352 350 349 349 349 349 348 348 347 346 345 347 347 337 324 316 311 310 308 305 288 216 201 204 207 205 202 200 200 202 205 207 207 204 198 194 193 193 192 191 190 188 188 190 191 191 191 191 191 192 193 193 193 194 195 196 197 197
345 347 349 350 351 353 354 355 355 355 355 355 355 355 355 354 354 355 355 355 355 355 355 354 353 352 351 350 351 351 349 347 347 347 347 346 344 342 341 338 336 339 339 331 318 309 302 298 295 288 265 224 208 208 210 210 208 207 206 206 207 207 203 197 193 192 192 191 190 189 188 189 190 191 191 191 191 192 192 193 193 193 194 195 196 196 197
345 346 347 349 350 351 353 354 354 354 353 353 353 353 354 353 353 354 355 356 356 355 354 353 352 350 348 348 348 348 347 345 343 342 342 342 340 337 335 333 329 326 326 325 318 308 300 292 286 282 276 258 230 215 211 212 213 213 212 210 209 207 202 196 193 192 192 190 189 188 188 189 190 191 191 191 192 193 193 193 193 193 194 195 196 196 196
345 345 346 347 349 350 352 352 352 352 352 352 351 351 352 352 352 353 356 357 356 354 352 351 350 349 346 345 346 345 343 342 340 337 336 335 334 332 329 327 323 320 317 314 310 304 297 290 282 277 272 265 251 232 219 214 214 215 216 216 214 211 204 196 192 192 192 191 189 188 188 189 190 192 192 192 193 194 193 193 192 193 194 195 196 196 196
345 345 346 346 348 349 350 350 350 351 351 351 351 350 351 351 351 353 354 354 353 351 349 347 348 348 346 345 344 341 339 338 336 333 330 329 327 325 323 320 318 316 313 308 304 298 292 286 281 275 269 263 255 244 230 220 217 216 217 218 218 216 210 200 194 192 192 191 190 189 189 190 191 192 192 193 194 194 194 193 193 193 194 195 195 196 197
344 345 345 346 346 348 349 349 349 350 350 350 350 350 350 350 350 350 351 351 350 349 347 345 345 347 346 344 342 339 336 335 333 329 326 324 322 319 317 316 314 312 309 305 301 297 290 284 277 271 266 261 254 247 238 228 221 218 218 218 219 219 215 207 199 194 193 192 191 190 190 191 192 193 193 194 194 195 195 194 194 194 195 195 195 196 198
344 344 344 345 345 346 347 347 347 348 349 349 348 349 349 350 349 348 348 348 348 348 345 342 342 344 343 341 339 338 337 335 332 328 325 323 321 318 315 313 311 309 306 303 301 297 290 283 276 269 264 260 254 248 242 234 226 221 219 219 219 219 218 212 205 199 196 193 192 191 191 192 193 194 194 195 195 196 196 195 195 195 196 196 195 196 198
343 343 343 344 344 345 346 346 346 347 348 348 348 348 349 349 349 348 347 346 346 345 343 339 338 339 339 338 337 337 336 334 332 328 325 323 321 319 315 311 308 305 302 300 298 295 289 283 275 267 262 259 255 250 244 237 230 224 220 219 219 219 218 215 209 204 201 197 194 192 192 193 194 195 196 196 196 197 196 196 196 197 197 197 196 196 199
342 342 343 343 344 344 344 345 346 346 347 347 348 348 348 348 348 347 345 344 343 343 340 337 335 335 335 334 334 334 332 331 330 328 325 323 320 318 314 310 306 303 300 297 295 293 289 284 277 268 261 256 252 249 246 241 234 227 222 220 219 219 219 217 211 206 204 202 198 195 194 194 195 196 197 198 198 198 198 197 197 198 198 198 197 197 199
341 342 343 343 344 344 344 345 345 345 346 347 348 347 347 347 346 344 344 343 342 341 339 336 334 334 333 332 331 331 330 328 327 325 323 321 317 314 310 307 303 300 297 293 290 288 286 283 278 271 263 255 249 245 244 242 238 231 224 221 219 219 219 219 214 208 205 204 202 200 197 196 197 198 199 199 199 199 199 199 199 199 200 200 199 199 199
340 341 342 343 344 344 344 345 345 345 345 346 345 345 345 345 343 343 343 343 342 340 338 336 334 333 331 330 330 329 327 326 325 324 322 320 316 311 308 305 301 298 295 291 288 286 284 282 279 274 266 257 248 242 239 239 238 235 229 223 220 219 219 219 217 211 206 205 204 203 201 199 199 199 200 201 201 201 200 200 201 201 201 201 201 201 201
340 341 342 343 344 344 344 345 345 345 344 342 341 342 344 344 343 343 343 342 341 340 338 336 334 332 330 329 329 327 325 324 324 323 322 321 319 315 312 308 304 300 297 294 292 290 287 285 281 276 269 261 251 242 237 235 234 234 232 227 222 219 219 219 218 215 209 206 205 205 204 203 202 202 202 202 203 203 202 202 203 203 203 203 204 204 204
340 341 342 343 344 344 344 344 345 344 343 341 339 341 343 344 343 343 342 341 340 339 338 336 334 332 330 329 328 327 325 324 323 323 322 322 321 318 315 312 309 305 302 298 296 296 294 289 281 274 270 265 257 246 238 232 230 230 231 230 226 222 219 219 219 217 213 208 206 206 206 205 205 205 204 204 205 205 204 204 204 205 206 206 205 206 206
Height
10616 10609 10602 10595 10589 10584 10579 10575 10570 10566 10563 10560 10556 10553 10550 10549 10548 10547 10545 10542 10540 10537 10535 10533 10531 10529 10527 10525 10523 10521 10520 10518 10516 10515 10512 10510 10508 10506 10505 10504 10503 10505 10506 10507 10510 10511 10513 10517 10521 10527 10533 10538 10547 10552 10556 10565 10574 10580 10587 10599 10611 10621 10631 10643 10655 10668 10675 10680 10693 10705 10713 10722 10735 10749 10761 10769 10779 10791 10801 10813 10823 10832 10841 10849 10856 10863 10865
10611 10604 10597 10591 10585 10579 10574 10569 10565 10561 10557 10553 10550 10546 10544 10542 10541 10540 10538 10536 10533 10531 10528 10526 10524 10522 10520 10517 10515 10513 10512 10510 10508 10507 10504 10502 10499 10496 10494 10492 10491 10493 10495 10496 10498 10499 10501 10504 10507 10513 10519 10525 10533 10537 10541 10549 10557 10564 10573 10585 10598 10607 10617 10628 10639 10650 10658 10665 10679 10692 10699 10709 10722 10733 10742 10753 10768 10782 10795 10808 10819 10827 10835 10841 10850 10857 10857
10606 10599 10593 10586 10580 10575 10570 10565 10560 10555 10551 10548 10544 10541 10538 10535 10533 10532 10531 10530 10527 10525 10522 10520 10518 10515 10513 10511 10508 10506 10504 10502 10500 10498 10495 10492 10489 10486 10484 10483 10482 10482 10483 10485 10486 10487 10489 10491 10494 10499 10504 10511 10518 10523 10527 10534 10542 10550 10560 10571 10583 10591 10601 10613 10625 10635 10644 10651 10665 10679 10688 10697 10705 10713 10727 10744 10759 10774 10787 10798 10807 10817 10825 10833 10843 10850 10848
10601 10594 10588 10582 10576 10570 10565 10560 10555 10551 10547 10543 10540 10536 10533 10530 10527 10525 10524 10523 10521 10518 10516 10514 10511 10509 10507 10504 10501 10499 10496 10493 10491 10488 10485 10481 10478 10475 10474 10474 10474 10473 10472 10473 10474 10475 10477 10478 10481 10486 10491 10498 10505 10509 10514 10521 10529 10538 10547 10556 10568 10577 10588 10601 10613 10623 10632 10640 10653 10667 10674 10680 10688 10701 10722 10738 10750 10765 10778 10786 10797 10808 10814 10821 10831 10839 10839
10597 10590 10583 10577 10571 10565 10560 10555 10551 10547 10543 10539 10536 10532 10529 10526 10523 10521 10518 10516 10514 10512 10510 10508 10505 10503 10500 10498 10495 10492 10489 10486 10483 10479 10475 10471 10467 10465 10464 10464 10464 10462 10461 10461 10462 10463 10464 10466 10469 10473 10479 10485 10491 10496 10502 10508 10516 10525 10534 10544 10554 10565 10576 10587 10599 10610 10618 10625 10639 10652 10660 10669 10680 10697 10717 10729 10741 10757 10768 10777 10790 10799 10805 10814 10822 10828 10831
10593 10586 10579 10573 10567 10561 10556 10551 10547 10543 10539 10535 10532 10528 10525 10522 10519 10516 10514 10512 10509 10507 10505 10502 10499 10497 10494 10491 10488 10485 10482 10479 10476 10472 10467 10462 10458 10455 10455 10454 10452 10451 10450 10450 10451 10452 10453 10456 10458 10462 10468 10473 10478 10484 10489 10495 10503 10512 10521 10531 10542 10553 10564 10575 10587 10597 10603 10610 10623 10637 10649 10660 10674 10690 10706 10718 10732 10748 10759 10770 10782 10789 10799 10808 10812 10821 10828
10589 10582 10575 10569 10563 10557 10552 10547 10543 10539 10536 10532 10528 10525 10522 10519 10515 10512 10510 10508 10505 10502 10499 10497 10494 10491 10488 10485 10482 10480 10476 10473 10470 10466 10460 10454 10450 10447 10446 10444 10442 10440 10440 10440 10441 10442 10444 10446 10449 10452 10457 10462 10467 10472 10477 10484 10492 10500 10509 10519 10531 10541 10551 10563 10575 10585 10592 10599 10611 10626 10638 10651 10665 10680 10694 10705 10719 10734 10747 10760 10771 10781 10794 10800 10803 10817 10824
10585 10578 10571 10565 10559 10554 10549 10544 10539 10535 10531 10528 10525 10522 10518 10515 10512 10509 10506 10503 10501 10498 10495 10492 10489 10486 10483 10480 10477 10474 10471 10467 10463 10459 10453 10447 10442 10440 10438 10435 10433 10431 10431 10431 10432 10433 10435 10437 10440 10443 10447 10451 10456 10461 10468 10475 10482 10489 10497 10507 10519 10529 10539 10551 10564 10574 10581 10587 10599 10614 10628 10640 10654 10668 10680 10694 10708 10722 10735 10749 10761 10773 10784 10789 10796 10812 10814
10582 10575 10568 10562 10556 10551 10545 10540 10536 10531 10528 10524 10521 10518 10515 10512 10509 10506 10502 10499 10497 10494 10490 10487 10484 10481 10478 10475 10471 10469 10465 10461 10457 10452 10446 10441 10436 10432 10430 10428 10425 10423 10423 10423 10424 10425 10426 10429 10431 10434 10437 10442 10447 10452 10459 10465 10472 10479 10487 10497 10509 10519 10528 10539 10551 10562 10570 10575 10586 10601 10616 10629 10641 10654 10669 10684 10698 10712 10725 10739 10750 10762 10773 10781 10791 10803 10802
10579 10572 10565 10559 10553 10548 10542 10537 10532 10528 10524 10521 10518 10514 10511 10508 10505 10502 10499 10495 10492 10489 10486 10482 10479 10476 10472 10469 10466 10463 10460 10456 10451 10446 10440 10435 10430 10426 10423 10421 10419 10417 10417 10417 10417 10418 10419 10421 10424 10427 10430 10434 10439 10443 10449 10457 10463 10470 10478 10488 10499 10509 10518 10527 10539 10550 10557 10561 10571 10588 10602 10614 10629 10645 10662 10676 10690 10704 10716 10727 10740 10753 10765 10772 10781 10792 10794
10576 10569 10562 10556 10550 10544 10539 10534 10529 10524 10520 10517 10514 10511 10508 10505 10502 10498 10495 10492 10488 10484 10481 10477 10474 10470 10467 10464 10460 10458 10455 10451 10446 10440 10434 10430 10426 10421 10418 10415 10414 10412 10412 10412 10412 10412 10413 10415 10417 10420 10424 10428 10431 10435 10442 10449 10455 10462 10470 10480 10489 10499 10508 10517 10528 10539 10545 10549 10561 10576 10588 10602 10623 10641 10655 10668 10683 10695 10704 10716 10731 10745 10756 10764 10773 10784 10789
10574 10566 10560 10553 10547 10541 10536 10531 10526 10521 10517 10513 10510 10507 10504 10501 10498 10495 10492 10488 10484 10480 10476 10473 10469 10466 10463 10460 10456 10453 10451 10447 10442 10435 10429 10424 10420 10417 10413 10411 10409 10408 10407 10407 10407 10407 10408 10410 10411 10414 10418 10421 10425 10429 10435 10441 10447 10454 10463 10471 10479 10488 10497 10506 10517 10527 10534 10540 10551 10562 10576 10598 10621 10636 10647 10660 10673 10681 10692 10708 10724 10736 10746 10756 10766 10775 10780
10572 10564 10557 10550 10544 10539 10533 10528 10523 10518 10514 10510 10507 10503 10500 10497 10494 10491 10487 10484 10480 10477 10473 10469 10466 10462 10459 10456 10453 10450 10447 10444 10439 10432 10425 10419 10415 10412 10410 10407 10405 10404 10404 10404 10404 10404 10404 10406 10407 10409 10412 10415 10419 10424 10429 10435 10441 10448 10456 10464 10471 10479 10486 10495 10505 10516 10524 10531 10541 10555 10575 10598 10616 10627 10636 10647 10658 10668 10685 10703 10716 10726 10738 10748 10758 10769 10773
10570 10562 10555 10548 10541 10535 10530 10525 10520 10515 10511 10507 10504 10500 10497 10494 10490 10487 10484 10480 10477 10474 10470 10466 10463 10459 10456 10452 10449 10446 10444 10441 10436 10429 10423 10417 10412 10409 10406 10404 10402 10401 10401 10401 10400 10400 10401 10402 10404 10406 10408 10411 10415 10419 10423 10428 10434 10441 10448 10456 10462 10469 10477 10486 10497 10507 10514 10523 10536 10553 10571 10589 10603 10614 10622 10632 10646 10663 10681 10695 10706 10718 10731 10740 10752 10763 10764
10567 10560 10552 10545 10538 10532 10527 10522 10517 10513 10509 10505 10501 10497 10494 10491 10487 10484 10481 10478 10474 10470 10467 10464 10460 10456 10453 10449 10446 10442 10439 10437 10433 10427 10421 10416 10411 10407 10404 10402 10400 10399 10398 10398 10397 10397 10398 10399 10400 10402 10404 10407 10411 10414 10418 10423 10428 10434 10440 10446 10453 10460 10469 10479 10489 10498 10505 10514 10529 10545 10562 10579 10592 10601 10609 10621 10639 10657 10673 10686 10697 10710 10722 10732 10745 10755 10755
10565 10557 10549 10542 10536 10530 10524 10519 10515 10511 10507 10503 10499 10495 10491 10488 10485 10481 10478 10475 10471 10468 10464 10461 10457 10454 10450 10446 10442 10439 10436 10434 10430 10425 10418 10413 10409 10406 10403 10400 10398 10397 10396 10395 10395 10395 10396 10396 10397 10399 10401 10404 10408 10411 10414 10418 10424 10429 10433 10438 10445 10453 10462 10472 10483 10490 10496 10507 10522 10538 10555 10572 10583 10591 10600 10615 10632 10650 10663 10675 10686 10698 10711 10725 10738 10746 10746
10562 10554 10547 10540 10533 10527 10522 10517 10513 10509 10505 10501 10497 10493 10489 10486 10482 10479 10475 10472 10469 10465 10462 10459 10455 10451 10448 10444 10440 10437 10433 10431 10429 10423 10417 10411 10407 10403 10401 10399 10397 10396 10395 10394 10393 10394 10394 10395 10396 10397 10399 10402 10405 10409 10411 10415 10420 10425 10430 10436 10441 10448 10457 10467 10477 10485 10492 10503 10518 10532 10547 10561 10570 10580 10592 10606 10624 10639 10650 10661 10678 10694 10708 10720 10731 10737 10737
10560 10552 10545 10538 10532 10526 10520 10515 10511 10506 10502 10499 10495 10491 10487 10483 10480 10476 10473 10470 10466 10463 10460 10457 10453 10449 10446 10442 10439 10435 10431 10428 10426 10423 10417 10411 10406 10402 10399 10397 10395 10394 10393 10392 10392 10392 10392 10393 10394 10396 10398 10400 10403 10406 10409 10413 10418 10423 10428 10434 10439 10444 10451 10460 10470 10478 10486 10498 10512 10524 10537 10550 10561 10571 10583 10598 10614 10627 10638 10656 10677 10692 10702 10713 10723 10728 10727
10558 10550 10543 10537 10531 10525 10519 10514 10509 10504 10500 10496 10492 10489 10485 10481 10477 10474 10470 10467 10464 10460 10457 10454 10451 10447 10444 10441 10437 10434 10429 10426 10424 10421 10417 10412 10406 10402 10399 10396 10394 10392 10391 10390 10390 10390 10390 10391 10393 10394 10396 10399 10401 10404 10407 10411 10416 10420 10425 10431 10435 10440 10447 10455 10463 10470 10477 10490 10504 10515 10529 10543 10555 10565 10576 10590 10604 10618 10635 10656 10672 10680 10690 10702 10712 10717 10718
10557 10549 10542 10535 10529 10523 10518 10512 10507 10503 10498 10494 10490 10486 10483 10479 10475 10472 10468 10465 10462 10459 10455 10452 10449 10446 10442 10439 10436 10433 10428 10425 10422 10420 10417 10412 10407 10402 10399 10396 10394 10392 10390 10389 10389 10389 10389 10390 10391 10393 10395 10397 10399 10402 10406 10409 10413 10418 10422 10427 10432 10438 10445 10451 10457 10462 10470 10482 10495 10507 10522 10536 10548 10558 10569 10582 10598 10615 10634 10651 10662 10671 10682 10693 10702 10707 10709
10556 10548 10540 10533 10526 10520 10515 10510 10506 10501 10497 10493 10489 10485 10481 10477 10473 10470 10466 10463 10460 10457 10454 10451 10448 10445 10442 10438 10435 10431 10428 10423 10420 10418 10416 10412 10407 10403 10399 10396 10394 10392 10390 10389 10389 10388 10388 10389 10390 10391 10393 10395 10397 10400 10403 10407 10411 10415 10419 10424 10429 10436 10442 10448 10452 10457 10466 10478 10490 10502 10516 10529 10539 10550 10563 10577 10594 10612 10627 10641 10654 10665 10675 10685 10693 10698 10700
10555 10547 10540 10532 10525 10519 10514 10509 10504 10500 10496 10492 10488 10484 10480 10476 10472 10468 10465 10462 10458 10455 10452 10449 10446 10444 10441 10437 10434 10430 10427 10423 10419 10417 10415 10413 10408 10404 10400 10397 10394 10392 10390 10389 10388 10388 10387 10388 10389 10390 10392 10394 10396 10399 10402 10405 10409 10413 10417 10422 10427 10433 10439 10446 10451 10456 10464 10476 10486 10497 10508 10520 10532 10544 10558 10572 10588 10605 10621 10634 10646 10657 10667 10677 10685 10689 10691
10554 10547 10539 10532 10526 10519 10513 10508 10504 10499 10495 10491 10486 10482 10479 10475 10471 10467 10464 10461 10457 10454 10450 10447 10444 10441 10439 10436 10433 10429 10426 10423 10420 10417 10415 10413 10409 10405 10401 10398 10395 10392 10391 10389 10388 10388 10387 10387 10388 10390 10391 10393 10395 10398 10401 10404 10407 10411 10416 10420 10425 10431 10437 10443 10449 10454 10461 10470 10481 10490 10501 10512 10524 10537 10551 10565 10581 10598 10613 10626 10637 10648 10659 10669 10676 10680 10684
10554 10547 10539 10532 10525 10518 10512 10507 10503 10498 10494 10489 10485 10481 10478 10474 10470 10467 10463 10459 10456 10453 10449 10446 10443 10441 10438 10436 10433 10429 10426 10423 10420 10417 10415 10413 10410 10406 10402 10399 10396 10393 10391 10390 10389 10388 10388 10387 10388 10390 10391 10393 10394 10397 10400 10402 10406 10410 10415 10419 10423 10428 10434 10440 10445 10451 10457 10465 10474 10483 10494 10506 10519 10531 10544 10558 10574 10590 10605 10617 10629 10640 10651 10661 10668 10673 10677
10554 10547 10539 10532 10525 10518 10512 10506 10501 10497 10493 10489 10485 10481 10477 10473 10469 10466 10462 10458 10455 10451 10448 10445 10442 10440 10437 10434 10431 10429 10426 10424 10421 10417 10414 10412 10410 10407 10403 10399 10396 10394 10392 10391 10390 10389 10388 10388 10388 10390 10392 10393 10395 10397 10399 10402 10405 10409 10414 10418 10422 10427 10431 10436 10442 10448 10455 10461 10467 10475 10487 10500 10513 10526 10539 10553 10568 10584 10597 10609 10620 10632 10643 10653 10660 10665 10671
10554 10547 10540 10533 10526 10519 10513 10507 10502 10497 10493 10489 10485 10480 10476 10473 10469 10465 10461 10457 10453 10450 10447 10444 10441 10438 10435 10433 10431 10428 10426 10424 10421 10418 10415 10412 10410 10408 10405 10401 10398 10395 10393 10392 10391 10390 10389 10389 10389 10390 10392 10394 10396 10397 10399 10402 10405 10408 10412 10416 10421 10425 10430 10434 10440 10446 10451 10456 10463 10472 10483 10496 10508 10521 10536 10550 10564 10578 10590 10601 10613 10625 10636 10646 10652 10658 10665
10554 10547 10540 10533 10527 10521 10515 10509 10504 10499 10495 10490 10485 10481 10477 10473 10469 10465 10461 10457 10453 10450 10446 10443 10441 10438 10436 10433 10431 10428 10426 10424 10421 10419 10416 10413 10411 10408 10406 10403 10400 10397 10395 10393 10392 10391 10390 10390 10390 10391 10392 10395 10397 10398 10401 10403 10405 10408 10412 10415 10419 10423 10428 10433 10438 10444 10448 10455 10463 10472 10483 10495 10506 10519 10532 10545 10558 10571 10582 10594 10606 10617 10628 10637 10645 10651 10660
10553 10546 10540 10534 10527 10522 10516 10511 10506 10501 10496 10491 10486 10481 10477 10473 10469 10465 10461 10458 10454 10451 10447 10444 10442 10439 10436 10433 10430 10428 10426 10424 10422 10420 10417 10415 10412 10409 10407 10404 10402 10399 10396 10394 10393 10392 10391 10391 10391 10391 10392 10395 10397 10399 10401 10404 10406 10409 10412 10415 10418 10423 10427 10432 10437 10441 10447 10454 10462 10473 10483 10494 10504 10516 10528 10540 10552 10564 10575 10587 10600 10611 10622 10631 10638 10645 10654
10553 10546 10540 10534 10528 10522 10517 10512 10507 10502 10497 10492 10487 10482 10478 10474 10470 10466 10462 10459 10455 10452 10448 10445 10442 10439 10436 10433 10430 10428 10426 10424 10422 10420 10418 10416 10413 10410 10408 10405 10403 10400 10398 10396 10394 10393 10392 10393 10393 10393 10393 10395 10397 10400 10402 10405 10408 10410 10412 10415 10419 10422 10426 10430 10435 10439 10445 10452 10461 10472 10482 10491 10502 10513 10525 10536 10547 10558 10570 10582 10594 10606 10616 10625 10632 10640 10650
10553 10546 10540 10534 10529 10523 10517 10512 10507 10503 10498 10493 10488 10484 10479 10475 10471 10467 10464 10460 10457 10453 10449 10446 10442 10439 10436 10433 10431 10428 10426 10424 10422 10420 10418 10415 10413 10411 10408 10406 10404 10402 10399 10397 10396 10394 10393 10394 10394 10395 10395 10396 10398 10400 10403 10406 10409 10412 10414 10416 10419 10421 10424 10428 10433 10437 10442 10449 10458 10469 10479 10489 10499 10510 10521 10531 10542 10554 10566 10577 10588 10600 10610 10619 10625 10633 10644
10552 10546 10540 10535 10529 10524 10518 10513 10508 10503 10498 10493 10489 10484 10480 10476 10472 10468 10465 10462 10459 10455 10451 10448 10444 10440 10437 10434 10431 10428 10426 10424 10422 10420 10418 10415 10413 10411 10409 10407 10405 10403 10401 10399 10397 10396 10395 10395 10395 10396 10396 10397 10399 10401 10403 10406 10410 10412 10414 10415 10417 10420 10423 10426 10430 10434 10440 10448 10457 10467 10476 10485 10496 10507 10518 10527 10538 10549 10561 10572 10582 10592 10602 10610 10618 10627 10638
10552 10546 10541 10535 10530 10524 10519 10513 10508 10503 10499 10494 10490 10485 10481 10477 10473 10469 10465 10462 10459 10456 10453 10449 10446 10443 10439 10436 10433 10430 10427 10424 10422 10420 10418 10416 10414 10412 10411 10409 10407 10405 10403 10401 10399 10398 10397 10397 10397 10397 10398 10399 10400 10401 10404 10407 10410 10411 10412 10414 10416 10419 10422 10424 10428 10433 10439 10448 10457 10466 10474 10483 10493 10504 10514 10524 10535 10546 10557 10567 10577 10585 10594 10602 10610 10620 10632
10552 10546 10540 10535 10530 10525 10519 10514 10509 10504 10499 10495 10490 10486 10482 10478 10474 10470 10467 10463 10460 10457 10453 10450 10447 10445 10442 10438 10435 10431 10429 10426 10424 10421 10419 10418 10416 10414 10412 10410 10409 10407 10405 10403 10401 10400 10399 10399 10399 10399 10399 10400 10401 10402 10404 10407 10409 10409 10410 10413 10416 10419 10421 10424 10427 10433 10440 10449 10457 10466 10474 10483 10491 10500 10509 10520 10533 10544 10554 10562 10571 10579 10587 10595 10604 10614 10626
10551 10545 10540 10535 10530 10525 10520 10515 10510 10505 10500 10496 10492 10488 10483 10479 10475 10471 10468 10464 10461 10457 10454 10451 10447 10445 10442 10440 10436 10433 10431 10429 10426 10423 10421 10419 10417 10416 10414 10413 10411 10409 10407 10405 10404 10403 10402 10401 10401 10401 10400 10401 10402 10403 10405 10407 10407 10408 10410 10413 10415 10418 10420 10423 10427 10433 10441 10448 10456 10464 10473 10482 10490 10497 10506 10517 10529 10540 10549 10558 10567 10577 10586 10594 10602 10611 10622
10551 10545 10540 10535 10530 10525 10520 10516 10511 10507 10502 10498 10494 10489 10484 10480 10475 10472 10468 10465 10461 10458 10454 10451 10448 10445 10442 10440 10438 10435 10433 10431 10427 10425 10422 10420 10419 10417 10416 10414 10413 10411 10409 10407 10406 10405 10404 10403 10403 10403 10402 10402 10403 10404 10406 10406 10407 10408 10410 10412 10414 10417 10420 10423 10428 10435 10442 10448 10454 10462 10470 10479 10488 10495 10504 10513 10522 10531 10542 10553 10563 10573 10582 10591 10599 10609 10618
10550 10545 10540 10535 10530 10526 10521 10517 10512 10508 10503 10499 10495 10490 10485 10481 10476 10472 10468 10465 10461 10458 10455 10451 10448 10445 10442 10440 10438 10436 10433 10431 10428 10426 10423 10421 10420 10418 10417 10416 10414 10413 10411 10409 10407 10406 10406 10405 10404 10405 10405 10404 10404 10404 10406 10406 10407 10408 10410 10412 10414 10417 10420 10423 10430 10437 10442 10448 10454 10460 10467 10475 10484 10493 10502 10511 10519 10527 10536 10546 10556 10565 10573 10582 10592 10602 10612
10550 10545 10540 10535 10530 10526 10521 10517 10513 10508 10504 10500 10495 10490 10486 10482 10477 10473 10469 10465 10461 10457 10454 10451 10447 10445 10442 10439 10437 10434 10432 10430 10428 10426 10424 10422 10420 10418 10417 10416 10415 10413 10412 10410 10409 10407 10407 10406 10405 10405 10406 10406 10405 10405 10405 10406 10407 10408 10410 10411 10414 10416 10419 10424 10431 10437 10442 10447 10453 10460 10466 10473 10480 10489 10499 10509 10518 10527 10535 10542 10551 10560 10568 10574 10582 10591 10602
10549 10544 10539 10534 10530 10525 10521 10517 10513 10508 10504 10499 10495 10490 10486 10482 10478 10473 10469 10465 10461 10457 10453 10450 10446 10444 10441 10438 10435 10433 10431 10428 10427 10425 10424 10422 10420 10418 10417 10415 10414 10413 10412 10411 10410 10408 10407 10406 10406 10405 10405 10406 10406 10406 10406 10406 10407 10409 10410 10411 10413 10416 10419 10424 10431 10437 10441 10446 10452 10459 10466 10473 10479 10487 10497 10507 10516 10525 10533 10540 10546 10555 10563 10570 10578 10586 10595
10548 10543 10539 10534 10529 10525 10521 10516 10512 10508 10504 10499 10495 10490 10486 10481 10477 10472 10468 10464 10461 10457 10453 10449 10446 10443 10440 10437 10434 10431 10429 10427 10426 10424 10422 10421 10419 10418 10416 10414 10413 10412 10412 10411 10410 10409 10408 10407 10406 10405 10405 10405 10406 10406 10407 10406 10407 10408 10410 10411 10413 10415 10419 10424 10430 10435 10440 10445 10451 10457 10464 10471 10478 10486 10495 10503 10512 10520 10529 10536 10543 10550 10558 10567 10576 10585 10593
10547 10542 10538 10534 10529 10525 10520 10516 10512 10508 10504 10499 10495 10490 10485 10480 10476 10471 10467 10464 10460 10456 10453 10449 10446 10443 10440 10437 10434 10431 10428 10427 10425 10423 10421 10420 10418 10417 10415 10414 10412 10411 10410 10409 10408 10408 10407 10407 10406 10406 10405 10404 10404 10405 10406 10407 10407 10407 10408 10410 10412 10414 10418 10424 10429 10433 10438 10443 10449 10456 10462 10469 10476 10484 10492 10500 10507 10515 10523 10531 10539 10546 10554 10563 10571 10580 10587
10546 10541 10537 10533 10529 10524 10520 10516 10511 10507 10502 10498 10494 10489 10484 10480 10475 10471 10467 10463 10459 10455 10452 10449 10446 10443 10440 10438 10435 10431 10428 10426 10424 10422 10420 10419 10417 10415 10414 10412 10411 10409 10408 10407 10406 10405 10405 10405 10405 10405 10404 10404 10403 10404 10405 10406 10406 10407 10407 10408 10410 10413 10417 10422 10427 10431 10435 10440 10446 10453 10460 10467 10474 10481 10489 10496 10503 10510 10518 10526 10534 10542 10550 10558 10565 10572 10579
10544 10540 10536 10532 10528 10524 10519 10515 10510 10506 10501 10496 10492 10487 10483 10479 10474 10470 10465 10461 10457 10453 10450 10448 10445 10442 10440 10437 10435 10432 10429 10426 10423 10421 10419 10417 10416 10414 10412 10410 10409 10408 10406 10404 10403 10402 10402 10402 10403 10402 10402 10402 10403 10403 10403 10403 10405 10406 10407 10407 10409 10411 10415 10419 10424 10428 10432 10437 10443 10449 10456 10463 10470 10478 10485 10492 10499 10506 10513 10521 10529 10537 10544 10551 10558 10565 10572
10543 10539 10534 10531 10527 10523 10518 10514 10510 10505 10500 10495 10490 10485 10480 10476 10472 10468 10463 10459 10455 10452 10449 10446 10444 10441 10438 10436 10433 10430 10427 10425 10422 10419 10417 10415 10413 10412 10410 10408 10407 10405 10404 10402 10401 10400 10399 10399 10399 10399 10399 10400 10400 10401 10401 10401 10402 10403 10405 10406 10408 10409 10412 10417 10421 10425 10429 10434 10440 10446 10452 10459 10466 10473 10481 10488 10495 10501 10508 10516 10523 10530 10537 10544 10551 10558 10565
10543 10538 10534 10530 10526 10522 10517 10513 10509 10504 10500 10494 10489 10483 10478 10474 10469 10465 10462 10458 10455 10451 10448 10445 10442 10440 10437 10434 10431 10428 10425 10423 10420 10417 10415 10413 10411 10409 10407 10405 10404 10402 10401 10400 10399 10398 10397 10396 10395 10395 10395 10396 10396 10397 10399 10399 10400 10401 10402 10404 10406 10408 10411 10414 10418 10421 10426 10431 10436 10442 10448 10454 10461 10468 10476 10483 10489 10496 10503 10510 10517 10524 10530 10537 10544 10551 10558
10542 10538 10534 10529 10525 10521 10517 10513 10508 10503 10499 10493 10488 10483 10478 10473 10468 10464 10461 10458 10454 10450 10446 10442 10440 10437 10435 10432 10429 10426 10423 10420 10418 10415 10412 10410 10408 10406 10404 10402 10400 10398 10397 10396 10395 10394 10394 10393 10392 10391 10391 10391 10392 10393 10394 10396 10397 10398 10399 10401 10403 10405 10409 10413 10416 10418 10422 10426 10432 10438 10444 10450 10456 10463 10470 10477 10483 10490 10497 10504 10511 10517 10523 10529 10536 10544 10551
10540 10536 10532 10529 10525 10521 10517 10513 10508 10503 10498 10493 10488 10482 10478 10473 10469 10464 10460 10456 10453 10448 10444 10440 10437 10434 10432 10429 10426 10423 10420 10418 10415 10412 10409 10407 10405 10402 10400 10398 10396 10394 10392 10391 10390 10390 10389 10389 10388 10387 10387 10387 10387 10388 10390 10391 10393 10395 10396 10398 10400 10402 10405 10410 10414 10417 10419 10422 10427 10433 10439 10445 10451 10457 10464 10470 10477 10484 10491 10498 10504 10510 10516 10522 10529 10536 10543
10539 10535 10531 10528 10524 10520 10516 10512 10508 10503 10498 10492 10487 10482 10476 10472 10468 10465 10460 10456 10452 10448 10443 10439 10435 10431 10428 10425 10422 10419 10416 10414 10411 10408 10405 10403 10400 10398 10395 10393 10391 10389 10387 10385 10385 10384 10384 10384 10383 10383 10383 10383 10383 10384 10385 10386 10388 10390 10392 10394 10396 10399 10401 10405 10410 10414 10417 10420 10423 10427 10433 10439 10445 10452 10458 10465 10471 10477 10484 10491 10497 10503 10510 10516 10522 10529 10536
10537 10534 10530 10526 10523 10519 10515 10510 10506 10501 10497 10491 10486 10481 10476 10470 10466 10462 10459 10455 10451 10447 10442 10438 10433 10429 10425 10421 10418 10415 10412 10409 10406 10403 10400 10398 10395 10393 10391 10388 10386 10384 10382 10380 10379 10378 10378 10378 10378 10379 10379 10378 10379 10379 10380 10381 10383 10386 10388 10390 10392 10394 10397 10400 10404 10410 10414 10418 10421 10424 10427 10433 10439 10445 10452 10458 10464 10471 10477 10483 10490 10496 10503 10509 10515 10521 10528
10536 10532 10529 10525 10521 10517 10513 10509 10504 10500 10495 10489 10484 10480 10475 10470 10465 10462 10458 10454 10449 10445 10440 10436 10431 10427 10423 10418 10415 10411 10407 10403 10400 10397 10395 10392 10390 10388 10386 10383 10381 10379 10377 10375 10373 10372 10372 10372 10372 10373 10373 10373 10373 10374 10375 10376 10378 10380 10383 10385 10387 10389 10391 10394 10399 10404 10409 10413 10417 10421 10424 10428 10433 10439 10445 10451 10457 10464 10470 10476 10482 10489 10495 10501 10507 10513 10519
10535 10531 10528 10525 10521 10516 10512 10507 10503 10498 10493 10488 10484 10480 10475 10470 10464 10460 10456 10451 10446 10442 10437 10432 10428 10423 10419 10415 10411 10407 10402 10398 10394 10391 10388 10386 10384 10382 10380 10378 10375 10373 10371 10370 10368 10367 10367 10367 10367 10367 10367 10367 10368 10369 10370 10371 10372 10374 10377 10379 10381 10384 10386 10389 10393 10398 10403 10408 10412 10417 10421 10425 10428 10433 10438 10444 10450 10457 10463 10469 10474 10480 10486 10492 10498 10504 10510
10533 10530 10526 10523 10519 10515 10510 10506 10501 10497 10492 10488 10484 10480 10475 10469 10462 10456 10452 10447 10442 10438 10433 10428 10423 10419 10414 10410 10407 10403 10398 10393 10389 10386 10383 10380 10377 10375 10374 10372 10369 10367 10365 10364 10362 10362 10361 10362 10361 10361 10360 10360 10362 10363 10365 10366 10367 10369 10370 10373 10375 10378 10381 10383 10387 10391 10397 10402 10406 10411 10416 10421 10424 10428 10432 10437 10443 10449 10456 10461 10467 10472 10478 10484 10490 10496 10502
10532 10528 10525 10521 10517 10513 10509 10504 10500 10496 10492 10487 10481 10476 10471 10466 10460 10454 10449 10444 10438 10433 10428 10423 10418 10413 10408 10404 10401 10397 10393 10388 10384 10381 10378 10374 10371 10369 10367 10365 10363 10361 10359 10358 10357 10356 10356 10357 10356 10355 10354 10354 10356 10358 10359 10361 10362 10363 10365 10367 10369 10372 10375 10378 10381 10385 10390 10395 10400 10404 10409 10414 10419 10423 10427 10431 10436 10442 10448 10454 10459 10465 10470 10476 10482 10488 10494